Time,TemperatureF,DewpointF,PressureIn,WindDirection,WindDirectionDegrees,WindSpeedMPH,WindSpeedGustMPH,Humidity,HourlyPrecipIn,Conditions,Clouds,dailyrainin,SoftwareType,DateUTC
2013-07-02 00:01:00,70.3,60.9,30.00,North,353,0.0,0.0,72,0.00,,---,0.00,VWS V14.01,2013-07-02 05:01:00,
2013-07-02 00:06:00,70.3,60.5,30.00,North,353,0.0,0.0,71,0.00,,---,0.00,VWS V14.01,2013-07-02 05:06:00,
2013-07-02 00:11:00,70.3,60.5,30.00,North,353,0.0,0.0,71,0.00,,---,0.00,VWS V14.01,2013-07-02 05:11:00,
2013-07-02 00:16:00,70.2,60.3,30.00,North,353,0.0,0.0,71,0.00,,---,0.00,VWS V14.01,2013-07-02 05:16:00,
2013-07-02 00:21:00,70.3,60.5,30.00,North,353,0.0,0.0,71,0.00,,---,0.00,VWS V14.01,2013-07-02 05:21:00,
2013-07-02 00:26:00,70.2,60.3,30.00,North,353,0.0,0.0,71,0.00,,---,0.00,VWS V14.01,2013-07-02 05:26:00,
2013-07-02 00:31:00,70.0,60.2,30.00,North,353,0.0,0.0,71,0.00,,---,0.00,VWS V14.01,2013-07-02 05:31:00,
2013-07-02 00:36:00,70.2,60.7,30.00,North,353,0.0,0.0,72,0.00,,---,0.00,VWS V14.01,2013-07-02 05:36:00,
2013-07-02 00:41:00,70.2,60.7,30.00,North,353,0.0,0.0,72,0.00,,---,0.00,VWS V14.01,2013-07-02 05:41:00,
2013-07-02 00:46:00,70.0,60.5,30.00,North,353,0.0,0.0,72,0.00,,---,0.00,VWS V14.01,2013-07-02 05:46:00,
2013-07-02 00:51:00,69.8,60.4,30.00,North,353,0.0,0.0,72,0.00,,---,0.00,VWS V14.01,2013-07-02 05:51:00,
2013-07-02 00:56:00,69.6,60.6,30.00,North,353,0.0,0.0,73,0.00,,---,0.00,VWS V14.01,2013-07-02 05:56:00,
2013-07-02 01:01:00,69.4,60.4,30.00,North,353,0.0,0.0,73,0.00,,---,0.00,VWS V14.01,2013-07-02 06:01:00,
2013-07-02 01:06:00,69.3,60.2,30.00,North,353,0.0,0.0,73,0.00,,---,0.00,VWS V14.01,2013-07-02 06:06:00,
2013-07-02 01:11:00,69.4,60.8,30.00,North,353,0.0,0.0,74,0.00,,---,0.00,VWS V14.01,2013-07-02 06:11:00,
2013-07-02 01:16:00,69.4,60.8,30.00,North,353,0.0,0.0,74,0.00,,---,0.00,VWS V14.01,2013-07-02 06:16:00,
2013-07-02 01:21:00,69.3,60.6,30.00,North,353,0.0,0.0,74,0.00,,---,0.00,VWS V14.01,2013-07-02 06:21:00,
2013-07-02 01:26:00,69.1,60.8,30.00,North,353,0.0,0.0,75,0.00,,---,0.00,VWS V14.01,2013-07-02 06:26:00,
2013-07-02 01:31:00,68.9,60.7,30.00,North,353,0.0,0.0,75,0.00,,---,0.00,VWS V14.01,2013-07-02 06:31:00,
2013-07-02 01:36:00,68.7,60.9,30.00,North,353,0.0,0.0,76,0.00,,---,0.00,VWS V14.01,2013-07-02 06:36:00,
2013-07-02 01:41:00,68.5,61.0,30.00,North,353,0.0,0.0,77,0.00,,---,0.00,VWS V14.01,2013-07-02 06:41:00,
2013-07-02 01:46:00,68.5,61.0,30.00,North,353,0.0,0.0,77,0.00,,---,0.00,VWS V14.01,2013-07-02 06:46:00,
2013-07-02 01:51:00,68.4,61.2,30.00,North,353,0.0,0.0,78,0.00,,---,0.00,VWS V14.01,2013-07-02 06:51:00,
2013-07-02 01:56:00,68.4,61.6,30.00,North,353,0.0,0.0,79,0.00,,---,0.00,VWS V14.01,2013-07-02 06:56:00,
2013-07-02 02:01:00,68.2,61.4,30.00,North,353,0.0,0.0,79,0.00,,---,0.00,VWS V14.01,2013-07-02 07:01:00,
2013-07-02 02:06:00,68.2,61.4,30.00,North,353,0.0,0.0,79,0.00,,---,0.00,VWS V14.01,2013-07-02 07:06:00,
2013-07-02 02:11:00,68.5,62.1,30.00,North,353,0.0,0.0,80,0.00,,---,0.00,VWS V14.01,2013-07-02 07:11:00,
2013-07-02 02:16:00,68.2,61.8,30.00,North,353,0.0,0.0,80,0.00,,---,0.00,VWS V14.01,2013-07-02 07:16:00,
2013-07-02 02:21:00,68.2,61.8,30.00,North,353,0.0,0.0,80,0.00,,---,0.00,VWS V14.01,2013-07-02 07:21:00,
2013-07-02 02:26:00,68.0,61.6,30.00,North,353,0.0,0.0,80,0.00,,---,0.00,VWS V14.01,2013-07-02 07:26:00,
2013-07-02 02:31:00,68.0,61.6,30.00,North,353,0.0,0.0,80,0.00,,---,0.00,VWS V14.01,2013-07-02 07:31:00,
2013-07-02 02:36:00,67.8,61.8,30.00,North,353,0.0,0.0,81,0.00,,---,0.00,VWS V14.01,2013-07-02 07:36:00,
2013-07-02 02:41:00,67.8,61.8,30.00,North,353,0.0,0.0,81,0.00,,---,0.00,VWS V14.01,2013-07-02 07:41:00,
2013-07-02 02:46:00,67.6,62.0,30.00,North,353,0.0,0.0,82,0.00,,---,0.00,VWS V14.01,2013-07-02 07:46:00,
2013-07-02 02:51:00,67.6,62.0,30.00,North,353,0.0,0.0,82,0.00,,---,0.00,VWS V14.01,2013-07-02 07:51:00,
2013-07-02 02:56:00,67.6,62.3,30.00,North,353,0.0,0.0,83,0.00,,---,0.00,VWS V14.01,2013-07-02 07:56:00,
2013-07-02 03:01:00,67.6,62.3,30.00,North,353,0.0,0.0,83,0.00,,---,0.00,VWS V14.01,2013-07-02 08:01:00,
2013-07-02 03:06:00,67.5,62.1,30.00,North,353,0.0,0.0,83,0.00,,---,0.00,VWS V14.01,2013-07-02 08:06:00,
2013-07-02 03:11:00,67.6,62.6,30.00,North,353,0.0,0.0,84,0.00,,---,0.00,VWS V14.01,2013-07-02 08:11:00,
2013-07-02 03:16:00,67.5,62.5,30.00,North,353,0.0,0.0,84,0.00,,---,0.00,VWS V14.01,2013-07-02 08:16:00,
2013-07-02 03:21:00,67.6,62.6,30.00,North,353,0.0,0.0,84,0.00,,---,0.00,VWS V14.01,2013-07-02 08:21:00,
2013-07-02 03:26:00,67.5,62.5,30.00,North,353,0.0,0.0,84,0.00,,---,0.00,VWS V14.01,2013-07-02 08:26:00,
2013-07-02 03:31:00,67.5,62.5,30.00,North,353,0.0,0.0,84,0.00,,---,0.00,VWS V14.01,2013-07-02 08:31:00,
2013-07-02 03:36:00,67.5,62.5,30.00,North,353,0.0,0.0,84,0.00,,---,0.00,VWS V14.01,2013-07-02 08:36:00,
2013-07-02 03:41:00,67.3,62.6,30.00,North,353,0.0,0.0,85,0.00,,---,0.00,VWS V14.01,2013-07-02 08:41:00,
2013-07-02 03:46:00,67.1,62.5,30.00,North,353,0.0,0.0,85,0.00,,---,0.00,VWS V14.01,2013-07-02 08:46:00,
2013-07-02 03:51:00,66.9,62.3,30.00,North,353,0.0,0.0,85,0.00,,---,0.00,VWS V14.01,2013-07-02 08:51:00,
2013-07-02 03:56:00,66.9,62.6,30.00,North,353,0.0,0.0,86,0.00,,---,0.00,VWS V14.01,2013-07-02 08:56:00,
2013-07-02 04:01:00,66.7,62.4,30.00,North,353,0.0,0.0,86,0.00,,---,0.00,VWS V14.01,2013-07-02 09:01:00,
2013-07-02 04:06:00,66.7,62.4,30.00,North,353,0.0,0.0,86,0.00,,---,0.00,VWS V14.01,2013-07-02 09:06:00,
2013-07-02 04:11:00,66.7,62.8,30.00,North,353,0.0,0.0,87,0.00,,---,0.00,VWS V14.01,2013-07-02 09:11:00,
2013-07-02 04:16:00,66.7,62.8,30.00,North,353,0.0,0.0,87,0.00,,---,0.00,VWS V14.01,2013-07-02 09:16:00,
2013-07-02 04:21:00,66.7,62.8,30.00,North,353,0.0,0.0,87,0.00,,---,0.00,VWS V14.01,2013-07-02 09:21:00,
2013-07-02 04:26:00,66.6,62.6,30.00,North,353,0.0,0.0,87,0.00,,---,0.00,VWS V14.01,2013-07-02 09:26:00,
2013-07-02 04:31:00,66.6,62.6,30.00,North,353,0.0,0.0,87,0.00,,---,0.00,VWS V14.01,2013-07-02 09:31:00,
2013-07-02 04:35:00,66.6,62.9,30.00,North,353,0.0,0.0,88,0.00,,---,0.00,VWS V14.01,2013-07-02 09:35:00,
2013-07-02 04:40:00,66.6,62.9,30.00,North,353,0.0,0.0,88,0.00,,---,0.00,VWS V14.01,2013-07-02 09:40:00,
2013-07-02 04:45:00,66.4,62.7,30.00,North,353,0.0,0.0,88,0.00,,---,0.00,VWS V14.01,2013-07-02 09:45:00,
2013-07-02 04:50:00,66.4,62.7,30.00,North,353,0.0,0.0,88,0.00,,---,0.00,VWS V14.01,2013-07-02 09:50:00,
2013-07-02 04:55:00,66.4,62.7,30.00,North,353,0.0,0.0,88,0.00,,---,0.00,VWS V14.01,2013-07-02 09:55:00,
2013-07-02 05:00:00,66.2,62.5,30.00,North,353,0.0,0.0,88,0.00,,---,0.00,VWS V14.01,2013-07-02 10:00:00,
2013-07-02 05:05:00,66.2,62.5,30.03,North,353,0.0,0.0,88,0.00,,---,0.00,VWS V14.01,2013-07-02 10:05:00,
2013-07-02 05:10:00,66.2,62.9,30.03,North,353,0.0,0.0,89,0.00,,---,0.00,VWS V14.01,2013-07-02 10:10:00,
2013-07-02 05:15:00,66.2,62.9,30.03,North,353,0.0,0.0,89,0.00,,---,0.00,VWS V14.01,2013-07-02 10:15:00,
2013-07-02 05:20:00,66.0,62.7,30.03,North,353,0.0,0.0,89,0.00,,---,0.00,VWS V14.01,2013-07-02 10:20:00,
2013-07-02 05:25:00,66.2,62.9,30.03,North,353,0.0,0.0,89,0.00,,---,0.00,VWS V14.01,2013-07-02 10:25:00,
2013-07-02 05:30:00,66.2,62.9,30.03,North,353,0.0,0.0,89,0.00,,---,0.00,VWS V14.01,2013-07-02 10:30:00,
2013-07-02 05:35:00,66.2,62.9,30.03,North,353,0.0,0.0,89,0.00,,---,0.00,VWS V14.01,2013-07-02 10:35:00,
2013-07-02 05:40:00,66.2,62.9,30.03,North,353,0.0,0.0,89,0.00,,---,0.00,VWS V14.01,2013-07-02 10:40:00,
2013-07-02 05:45:00,66.2,62.9,30.03,North,353,0.0,0.0,89,0.00,,---,0.00,VWS V14.01,2013-07-02 10:45:00,
2013-07-02 05:50:00,66.2,62.9,30.03,North,353,0.0,0.0,89,0.00,,---,0.00,VWS V14.01,2013-07-02 10:50:00,
2013-07-02 05:55:00,66.2,62.5,30.03,North,353,0.0,0.0,88,0.00,,---,0.00,VWS V14.01,2013-07-02 10:55:00,
2013-07-02 06:00:00,66.0,62.4,30.03,North,353,0.0,0.0,88,0.00,,---,0.00,VWS V14.01,2013-07-02 11:00:00,
2013-07-02 06:05:00,66.0,62.4,30.03,North,353,0.0,0.0,88,0.00,,---,0.00,VWS V14.01,2013-07-02 11:05:00,
2013-07-02 06:10:00,65.8,62.2,30.03,North,353,0.0,0.0,88,0.00,,---,0.00,VWS V14.01,2013-07-02 11:10:00,
2013-07-02 06:15:00,65.8,61.9,30.03,North,353,0.0,0.0,87,0.00,,---,0.00,VWS V14.01,2013-07-02 11:15:00,
2013-07-02 06:20:00,65.7,61.7,30.03,North,353,0.0,0.0,87,0.00,,---,0.00,VWS V14.01,2013-07-02 11:20:00,
2013-07-02 06:25:00,65.7,61.7,30.03,North,353,0.0,0.0,87,0.00,,---,0.00,VWS V14.01,2013-07-02 11:25:00,
2013-07-02 06:30:00,65.7,61.7,30.03,North,353,0.0,0.0,87,0.00,,---,0.00,VWS V14.01,2013-07-02 11:30:00,
2013-07-02 06:35:00,65.8,61.9,30.03,North,353,0.0,0.0,87,0.00,,---,0.00,VWS V14.01,2013-07-02 11:35:00,
2013-07-02 06:40:00,65.8,61.9,30.03,North,353,0.0,0.0,87,0.00,,---,0.00,VWS V14.01,2013-07-02 11:40:00,
2013-07-02 06:45:00,65.8,61.5,30.03,North,353,0.0,0.0,86,0.00,,---,0.00,VWS V14.01,2013-07-02 11:45:00,
2013-07-02 06:50:00,66.0,61.7,30.03,North,353,0.0,0.0,86,0.00,,---,0.00,VWS V14.01,2013-07-02 11:50:00,
2013-07-02 06:55:00,66.2,61.6,30.03,North,353,0.0,0.0,85,0.00,,---,0.00,VWS V14.01,2013-07-02 11:55:00,
2013-07-02 07:00:00,66.6,61.9,30.03,North,353,0.0,0.0,85,0.00,,---,0.00,VWS V14.01,2013-07-02 12:00:00,
2013-07-02 07:05:00,66.7,61.8,30.06,North,353,0.0,0.0,84,0.00,,---,0.00,VWS V14.01,2013-07-02 12:05:00,
2013-07-02 07:10:00,67.1,61.8,30.06,North,353,0.0,0.0,83,0.00,,---,0.00,VWS V14.01,2013-07-02 12:10:00,
2013-07-02 07:15:00,67.3,61.6,30.06,North,353,0.0,0.0,82,0.00,,---,0.00,VWS V14.01,2013-07-02 12:15:00,
2013-07-02 07:20:00,67.6,61.6,30.06,North,353,0.0,0.0,81,0.00,,---,0.00,VWS V14.01,2013-07-02 12:20:00,
2013-07-02 07:25:00,68.0,61.6,30.06,North,353,0.0,0.0,80,0.00,,---,0.00,VWS V14.01,2013-07-02 12:25:00,
2013-07-02 07:30:00,68.4,61.6,30.06,North,353,0.0,0.0,79,0.00,,---,0.00,VWS V14.01,2013-07-02 12:30:00,
2013-07-02 07:35:00,68.7,61.6,30.06,North,353,0.0,0.0,78,0.00,,---,0.00,VWS V14.01,2013-07-02 12:35:00,
2013-07-02 07:40:00,69.3,61.4,30.06,North,353,0.0,0.0,76,0.00,,---,0.00,VWS V14.01,2013-07-02 12:40:00,
2013-07-02 07:45:00,69.6,61.0,30.06,North,353,0.0,0.0,74,0.00,,---,0.00,VWS V14.01,2013-07-02 12:45:00,
2013-07-02 07:50:00,70.2,60.7,30.06,North,353,0.0,0.0,72,0.00,,---,0.00,VWS V14.01,2013-07-02 12:50:00,
2013-07-02 07:55:00,70.7,60.5,30.06,North,353,0.0,0.0,70,0.00,,---,0.00,VWS V14.01,2013-07-02 12:55:00,
2013-07-02 08:00:00,71.2,60.2,30.06,North,353,0.0,0.0,68,0.00,,---,0.00,VWS V14.01,2013-07-02 13:00:00,
2013-07-02 08:05:00,71.8,59.8,30.06,North,353,0.0,0.0,66,0.00,,---,0.00,VWS V14.01,2013-07-02 13:05:00,
2013-07-02 08:10:00,72.1,59.3,30.06,North,353,0.0,0.0,64,0.00,,---,0.00,VWS V14.01,2013-07-02 13:10:00,
2013-07-02 08:15:00,72.7,58.9,30.06,North,353,0.0,0.0,62,0.00,,---,0.00,VWS V14.01,2013-07-02 13:15:00,
2013-07-02 08:20:00,73.2,59.0,30.06,North,353,0.0,0.0,61,0.00,,---,0.00,VWS V14.01,2013-07-02 13:20:00,
2013-07-02 08:25:00,73.8,58.5,30.06,North,353,0.0,0.0,59,0.00,,---,0.00,VWS V14.01,2013-07-02 13:25:00,
2013-07-02 08:30:00,74.3,58.6,30.06,North,353,0.0,0.0,58,0.00,,---,0.00,VWS V14.01,2013-07-02 13:30:00,
2013-07-02 08:35:00,75.0,58.3,30.06,East,87,0.0,0.0,56,0.00,,---,0.00,VWS V14.01,2013-07-02 13:35:00,
2013-07-02 08:40:00,76.3,57.9,30.06,East,85,0.0,0.0,53,0.00,,---,0.00,VWS V14.01,2013-07-02 13:40:00,
2013-07-02 08:45:00,77.2,57.1,30.06,East,85,0.0,0.0,50,0.00,,---,0.00,VWS V14.01,2013-07-02 13:45:00,
2013-07-02 08:50:00,77.7,56.5,30.06,East,85,0.0,0.0,48,0.00,,---,0.00,VWS V14.01,2013-07-02 13:50:00,
2013-07-02 08:55:00,78.4,57.1,30.06,East,85,0.0,0.0,48,0.00,,---,0.00,VWS V14.01,2013-07-02 13:55:00,
2013-07-02 09:00:00,78.6,56.1,30.06,East,85,0.0,0.0,46,0.00,,---,0.00,VWS V14.01,2013-07-02 14:00:00,
2013-07-02 09:05:00,79.0,55.8,30.06,East,85,0.0,0.0,45,0.00,,---,0.00,VWS V14.01,2013-07-02 14:05:00,
2013-07-02 09:10:00,79.3,55.6,30.06,East,85,0.0,0.0,44,0.00,,---,0.00,VWS V14.01,2013-07-02 14:10:00,
2013-07-02 09:15:00,79.9,55.4,30.06,East,96,0.0,0.0,43,0.00,,---,0.00,VWS V14.01,2013-07-02 14:15:00,
2013-07-02 09:20:00,80.4,55.9,30.06,West,279,0.0,0.0,43,0.00,,---,0.00,VWS V14.01,2013-07-02 14:20:00,
2013-07-02 09:25:00,80.8,55.6,30.06,West,276,0.0,0.0,42,0.00,,---,0.00,VWS V14.01,2013-07-02 14:25:00,
2013-07-02 09:30:00,81.9,55.9,30.06,WNW,301,0.0,0.0,41,0.00,,---,0.00,VWS V14.01,2013-07-02 14:30:00,
2013-07-02 09:35:00,83.3,55.8,30.06,NNW,332,0.0,0.0,39,0.00,,---,0.00,VWS V14.01,2013-07-02 14:35:00,
2013-07-02 09:40:00,85.6,55.7,30.06,ESE,114,0.0,0.0,36,0.00,,---,0.00,VWS V14.01,2013-07-02 14:40:00,
2013-07-02 09:45:00,87.8,54.3,30.06,ESE,115,0.0,0.0,32,0.00,,---,0.00,VWS V14.01,2013-07-02 14:45:00,
2013-07-02 09:50:00,89.8,54.2,30.06,NNE,22,0.0,0.0,30,0.00,,---,0.00,VWS V14.01,2013-07-02 14:50:00,
2013-07-02 09:55:00,91.0,54.4,30.06,East,91,0.0,0.0,29,0.00,,---,0.00,VWS V14.01,2013-07-02 14:55:00,
2013-07-02 10:00:00,92.7,53.8,30.06,East,91,0.0,0.0,27,0.00,,---,0.00,VWS V14.01,2013-07-02 15:00:00,
2013-07-02 10:05:00,92.8,54.0,30.06,East,91,0.0,0.0,27,0.00,,---,0.00,VWS V14.01,2013-07-02 15:05:00,
2013-07-02 10:10:00,93.9,53.9,30.06,SE,136,0.0,0.0,26,0.00,,---,0.00,VWS V14.01,2013-07-02 15:10:00,
2013-07-02 10:15:00,93.9,51.7,30.06,SE,136,0.0,0.0,24,0.00,,---,0.00,VWS V14.01,2013-07-02 15:15:00,
2013-07-02 10:20:00,94.8,51.3,30.06,SE,136,0.0,0.0,23,0.00,,---,0.00,VWS V14.01,2013-07-02 15:20:00,
2013-07-02 10:25:00,95.0,50.2,30.06,SE,136,0.0,0.0,22,0.00,,---,0.00,VWS V14.01,2013-07-02 15:25:00,
2013-07-02 10:30:00,95.5,50.7,30.06,SE,136,0.0,0.0,22,0.00,,---,0.00,VWS V14.01,2013-07-02 15:30:00,
2013-07-02 10:35:00,96.6,49.0,30.06,North,0,0.0,0.0,20,0.00,,---,0.00,VWS V14.01,2013-07-02 15:35:00,
2013-07-02 10:40:00,97.2,48.1,30.06,North,6,2.7,2.7,19,0.00,,---,0.00,VWS V14.01,2013-07-02 15:40:00,
2013-07-02 10:45:00,97.5,46.9,30.06,NNW,348,0.0,0.0,18,0.00,,---,0.00,VWS V14.01,2013-07-02 15:45:00,
2013-07-02 10:50:00,98.6,46.3,30.06,NNW,348,0.0,0.0,17,0.00,,---,0.00,VWS V14.01,2013-07-02 15:50:00,
2013-07-02 10:55:00,98.6,46.3,30.06,NNW,338,0.0,0.0,17,0.00,,---,0.00,VWS V14.01,2013-07-02 15:55:00,
2013-07-02 11:00:00,98.4,46.1,30.06,North,1,0.0,3.1,17,0.00,,---,0.00,VWS V14.01,2013-07-02 16:00:00,
2013-07-02 11:05:00,99.7,47.2,30.06,North,0,0.0,0.0,17,0.00,,---,0.00,VWS V14.01,2013-07-02 16:05:00,
2013-07-02 11:10:00,99.7,45.5,30.06,SSE,147,2.2,4.0,16,0.00,,---,0.00,VWS V14.01,2013-07-02 16:10:00,
2013-07-02 11:15:00,99.3,45.3,30.06,SSE,147,0.0,0.0,16,0.00,,---,0.00,VWS V14.01,2013-07-02 16:15:00,
2013-07-02 11:20:00,100.9,44.8,30.06,SSE,147,0.0,0.0,15,0.00,,---,0.00,VWS V14.01,2013-07-02 16:20:00,
2013-07-02 11:25:00,100.8,44.7,30.06,SW,217,0.0,0.0,15,0.00,,---,0.00,VWS V14.01,2013-07-02 16:25:00,
2013-07-02 11:30:00,100.4,44.4,30.06,SW,217,0.0,0.0,15,0.00,,---,0.00,VWS V14.01,2013-07-02 16:30:00,
2013-07-02 11:35:00,100.9,44.8,30.06,SW,217,0.0,0.0,15,0.00,,---,0.00,VWS V14.01,2013-07-02 16:35:00,
2013-07-02 11:40:00,100.8,44.7,30.06,SW,217,0.0,0.0,15,0.00,,---,0.00,VWS V14.01,2013-07-02 16:40:00,
2013-07-02 11:45:00,100.4,44.4,30.06,ESE,114,0.0,0.0,15,0.00,,---,0.00,VWS V14.01,2013-07-02 16:45:00,
2013-07-02 11:50:00,100.8,44.7,30.06,NW,315,0.0,0.0,15,0.00,,---,0.00,VWS V14.01,2013-07-02 16:50:00,
2013-07-02 11:55:00,100.2,46.0,30.06,SE,138,0.0,0.0,16,0.00,,---,0.00,VWS V14.01,2013-07-02 16:55:00,
2013-07-02 12:00:00,100.6,44.6,30.06,SE,138,0.0,0.0,15,0.00,,---,0.00,VWS V14.01,2013-07-02 17:00:00,
2013-07-02 12:05:00,101.3,45.1,30.06,SE,138,0.0,0.0,15,0.00,,---,0.00,VWS V14.01,2013-07-02 17:05:00,
2013-07-02 12:10:00,102.2,45.8,30.06,North,8,0.0,0.0,15,0.00,,---,0.00,VWS V14.01,2013-07-02 17:10:00,
2013-07-02 12:15:00,101.8,45.6,30.06,SSE,161,0.0,0.0,15,0.00,,---,0.00,VWS V14.01,2013-07-02 17:15:00,
2013-07-02 12:20:00,102.9,46.4,30.06,North,357,0.0,0.0,15,0.00,,---,0.00,VWS V14.01,2013-07-02 17:20:00,
2013-07-02 12:25:00,102.6,44.3,30.06,NNE,12,2.7,3.6,14,0.00,,---,0.00,VWS V14.01,2013-07-02 17:25:00,
2013-07-02 12:30:00,103.1,44.7,30.06,North,5,0.0,0.0,14,0.00,,---,0.00,VWS V14.01,2013-07-02 17:30:00,
2013-07-02 12:35:00,103.1,44.7,30.06,NNW,343,0.0,0.0,14,0.00,,---,0.00,VWS V14.01,2013-07-02 17:35:00,
2013-07-02 12:40:00,103.8,45.3,30.06,SSW,203,0.0,0.0,14,0.00,,---,0.00,VWS V14.01,2013-07-02 17:40:00,
2013-07-02 12:45:00,101.7,45.4,30.06,South,182,0.0,0.0,15,0.00,,---,0.00,VWS V14.01,2013-07-02 17:45:00,
2013-07-02 12:50:00,103.5,45.0,30.06,South,188,0.0,0.0,14,0.00,,---,0.00,VWS V14.01,2013-07-02 17:50:00,
2013-07-02 12:55:00,103.8,45.3,30.06,North,353,5.4,5.4,14,0.00,,---,0.00,VWS V14.01,2013-07-02 17:55:00,
2013-07-02 13:00:00,102.9,44.6,30.06,NNW,340,0.0,0.0,14,0.00,,---,0.00,VWS V14.01,2013-07-02 18:00:00,
2013-07-02 13:05:00,101.7,45.4,30.06,WSW,243,0.0,0.0,15,0.00,,---,0.00,VWS V14.01,2013-07-02 18:05:00,
2013-07-02 13:10:00,98.4,44.5,30.06,SE,134,0.0,0.0,16,0.00,,---,0.00,VWS V14.01,2013-07-02 18:10:00,
2013-07-02 13:15:00,99.7,43.9,30.06,SE,134,0.0,0.0,15,0.00,,---,0.00,VWS V14.01,2013-07-02 18:15:00,
2013-07-02 13:20:00,100.8,44.7,30.06,East,90,0.0,0.0,15,0.00,,---,0.00,VWS V14.01,2013-07-02 18:20:00,
2013-07-02 13:25:00,99.0,43.3,30.06,NNE,27,0.0,0.0,15,0.00,,---,0.00,VWS V14.01,2013-07-02 18:25:00,
2013-07-02 13:30:00,99.5,43.7,30.06,NNE,27,0.0,0.0,15,0.00,,---,0.00,VWS V14.01,2013-07-02 18:30:00,
2013-07-02 13:35:00,99.7,43.9,30.06,South,179,0.0,0.0,15,0.00,,---,0.00,VWS V14.01,2013-07-02 18:35:00,
2013-07-02 13:40:00,100.2,44.3,30.06,North,9,0.0,0.0,15,0.00,,---,0.00,VWS V14.01,2013-07-02 18:40:00,
2013-07-02 13:45:00,99.9,44.0,30.06,SSE,167,0.0,0.0,15,0.00,,---,0.00,VWS V14.01,2013-07-02 18:45:00,
2013-07-02 13:50:00,99.3,43.6,30.06,NE,52,0.0,0.0,15,0.00,,---,0.00,VWS V14.01,2013-07-02 18:50:00,
2013-07-02 13:55:00,96.6,43.1,30.06,SSW,199,0.0,0.0,16,0.00,,---,0.00,VWS V14.01,2013-07-02 18:55:00,
2013-07-02 14:00:00,93.7,40.8,30.06,SSW,195,2.2,2.7,16,0.00,,---,0.00,VWS V14.01,2013-07-02 19:00:00,
2013-07-02 14:05:00,93.2,42.0,30.06,SSW,195,0.0,0.0,17,0.00,,---,0.00,VWS V14.01,2013-07-02 19:05:00,
2013-07-02 14:10:00,92.1,41.1,30.06,South,178,2.7,3.6,17,0.00,,---,0.00,VWS V14.01,2013-07-02 19:10:00,
2013-07-02 14:15:00,92.8,43.2,30.06,SSE,155,0.0,0.0,18,0.00,,---,0.00,VWS V14.01,2013-07-02 19:15:00,
2013-07-02 14:20:00,94.1,42.7,30.03,SSE,159,0.0,0.0,17,0.00,,---,0.00,VWS V14.01,2013-07-02 19:20:00,
2013-07-02 14:25:00,94.3,42.8,30.03,NNE,27,0.0,0.0,17,0.00,,---,0.00,VWS V14.01,2013-07-02 19:25:00,
2013-07-02 14:30:00,94.1,42.7,30.03,North,11,0.0,0.0,17,0.00,,---,0.00,VWS V14.01,2013-07-02 19:30:00,
2013-07-02 14:35:00,93.7,42.4,30.03,NNW,343,0.0,2.7,17,0.00,,---,0.00,VWS V14.01,2013-07-02 19:35:00,
2013-07-02 14:40:00,94.1,42.7,30.03,ESE,109,0.0,0.0,17,0.00,,---,0.00,VWS V14.01,2013-07-02 19:40:00,
2013-07-02 14:45:00,93.9,42.5,30.03,SSW,211,0.0,0.0,17,0.00,,---,0.00,VWS V14.01,2013-07-02 19:45:00,
2013-07-02 14:50:00,93.7,42.4,30.03,NNE,21,0.0,0.0,17,0.00,,---,0.00,VWS V14.01,2013-07-02 19:50:00,
2013-07-02 14:55:00,93.2,42.0,30.03,NNE,21,2.7,3.1,17,0.00,,---,0.00,VWS V14.01,2013-07-02 19:55:00,
2013-07-02 15:00:00,92.8,41.7,30.03,SSW,212,0.0,0.0,17,0.00,,---,0.00,VWS V14.01,2013-07-02 20:00:00,
2013-07-02 15:05:00,93.2,42.0,30.03,North,11,0.0,0.0,17,0.00,,---,0.00,VWS V14.01,2013-07-02 20:05:00,
2013-07-02 15:10:00,95.2,42.0,30.03,North,4,0.0,0.0,16,0.00,,---,0.00,VWS V14.01,2013-07-02 20:10:00,
2013-07-02 15:15:00,93.2,42.0,30.03,South,189,0.0,0.0,17,0.00,,---,0.00,VWS V14.01,2013-07-02 20:15:00,
2013-07-02 15:20:00,94.3,42.8,30.03,South,189,0.0,0.0,17,0.00,,---,0.00,VWS V14.01,2013-07-02 20:20:00,
2013-07-02 15:25:00,96.4,44.6,30.03,South,189,0.0,0.0,17,0.00,,---,0.00,VWS V14.01,2013-07-02 20:25:00,
2013-07-02 15:30:00,94.1,42.7,30.03,ESE,102,0.0,0.0,17,0.00,,---,0.00,VWS V14.01,2013-07-02 20:30:00,
2013-07-02 15:35:00,93.6,42.2,30.00,ESE,102,0.0,0.0,17,0.00,,---,0.00,VWS V14.01,2013-07-02 20:35:00,
2013-07-02 15:40:00,95.4,43.7,30.00,SE,131,0.0,0.0,17,0.00,,---,0.00,VWS V14.01,2013-07-02 20:40:00,
2013-07-02 15:45:00,96.4,43.0,30.00,North,0,0.0,0.0,16,0.00,,---,0.00,VWS V14.01,2013-07-02 20:45:00,
2013-07-02 15:50:00,97.5,43.8,30.00,North,6,0.0,0.0,16,0.00,,---,0.00,VWS V14.01,2013-07-02 20:50:00,
2013-07-02 15:55:00,95.4,42.1,30.00,NNE,18,0.0,0.0,16,0.00,,---,0.00,VWS V14.01,2013-07-02 20:55:00,
2013-07-02 16:00:00,94.3,42.8,30.00,SSW,192,2.7,3.6,17,0.00,,---,0.00,VWS V14.01,2013-07-02 21:00:00,
2013-07-02 16:05:00,93.6,42.2,30.00,SW,223,0.0,0.0,17,0.00,,---,0.00,VWS V14.01,2013-07-02 21:05:00,
2013-07-02 16:10:00,93.0,41.8,30.00,SW,223,0.0,0.0,17,0.00,,---,0.00,VWS V14.01,2013-07-02 21:10:00,
2013-07-02 16:15:00,93.2,42.0,30.00,SW,223,0.0,0.0,17,0.00,,---,0.00,VWS V14.01,2013-07-02 21:15:00,
2013-07-02 16:20:00,93.2,42.0,30.00,South,180,0.0,0.0,17,0.00,,---,0.00,VWS V14.01,2013-07-02 21:20:00,
2013-07-02 16:25:00,92.3,41.2,30.00,North,6,3.1,3.1,17,0.00,,---,0.00,VWS V14.01,2013-07-02 21:25:00,
2013-07-02 16:30:00,92.8,41.7,30.00,NNE,27,0.0,0.0,17,0.00,,---,0.00,VWS V14.01,2013-07-02 21:30:00,
2013-07-02 16:35:00,93.2,42.0,30.00,North,1,0.0,0.0,17,0.00,,---,0.00,VWS V14.01,2013-07-02 21:35:00,
2013-07-02 16:40:00,93.7,42.4,30.00,North,357,0.0,0.0,17,0.00,,---,0.00,VWS V14.01,2013-07-02 21:40:00,
2013-07-02 16:45:00,93.6,42.2,30.00,SSE,148,0.0,0.0,17,0.00,,---,0.00,VWS V14.01,2013-07-02 21:45:00,
2013-07-02 16:50:00,93.4,42.1,30.00,SSE,148,0.0,0.0,17,0.00,,---,0.00,VWS V14.01,2013-07-02 21:50:00,
2013-07-02 16:55:00,92.8,41.7,30.00,SSE,149,0.0,0.0,17,0.00,,---,0.00,VWS V14.01,2013-07-02 21:55:00,
2013-07-02 17:00:00,93.4,42.1,30.00,SSE,163,0.0,0.0,17,0.00,,---,0.00,VWS V14.01,2013-07-02 22:00:00,
2013-07-02 17:05:00,94.6,43.1,30.00,North,7,0.0,0.0,17,0.00,,---,0.00,VWS V14.01,2013-07-02 22:05:00,
2013-07-02 17:10:00,94.1,42.7,30.00,North,353,0.0,0.0,17,0.00,,---,0.00,VWS V14.01,2013-07-02 22:10:00,
2013-07-02 17:15:00,93.2,42.0,30.00,North,353,0.0,0.0,17,0.00,,---,0.00,VWS V14.01,2013-07-02 22:15:00,
2013-07-02 17:20:00,92.7,41.5,30.00,North,353,0.0,0.0,17,0.00,,---,0.00,VWS V14.01,2013-07-02 22:20:00,
2013-07-02 17:25:00,92.5,41.4,30.00,NE,51,0.0,0.0,17,0.00,,---,0.00,VWS V14.01,2013-07-02 22:25:00,
2013-07-02 17:30:00,92.1,41.1,30.00,NE,51,0.0,0.0,17,0.00,,---,0.00,VWS V14.01,2013-07-02 22:30:00,
2013-07-02 17:35:00,92.1,42.6,30.00,NE,51,0.0,0.0,18,0.00,,---,0.00,VWS V14.01,2013-07-02 22:35:00,
2013-07-02 17:40:00,92.1,42.6,30.00,NE,51,0.0,0.0,18,0.00,,---,0.00,VWS V14.01,2013-07-02 22:40:00,
2013-07-02 17:45:00,91.4,42.0,30.00,North,6,0.0,0.0,18,0.00,,---,0.00,VWS V14.01,2013-07-02 22:45:00,
2013-07-02 17:50:00,90.7,41.4,30.00,North,5,0.0,0.0,18,0.00,,---,0.00,VWS V14.01,2013-07-02 22:50:00,
2013-07-02 17:55:00,90.1,41.0,30.00,NNE,16,0.0,0.0,18,0.00,,---,0.00,VWS V14.01,2013-07-02 22:55:00,
2013-07-02 18:00:00,89.8,42.1,30.00,NNE,16,0.0,0.0,19,0.00,,---,0.00,VWS V14.01,2013-07-02 23:00:00,
2013-07-02 18:05:00,89.4,41.8,30.00,NNE,16,0.0,0.0,19,0.00,,---,0.00,VWS V14.01,2013-07-02 23:05:00,
2013-07-02 18:10:00,88.9,41.3,30.00,NNE,16,0.0,0.0,19,0.00,,---,0.00,VWS V14.01,2013-07-02 23:10:00,
2013-07-02 18:15:00,88.5,41.0,30.00,NNE,16,0.0,0.0,19,0.00,,---,0.00,VWS V14.01,2013-07-02 23:15:00,
2013-07-02 18:20:00,88.2,40.8,30.00,NNE,16,0.0,0.0,19,0.00,,---,0.00,VWS V14.01,2013-07-02 23:20:00,
2013-07-02 18:25:00,88.0,40.6,30.00,NNE,16,0.0,0.0,19,0.00,,---,0.00,VWS V14.01,2013-07-02 23:25:00,
2013-07-02 18:29:00,87.6,41.6,30.00,NNE,16,0.0,0.0,20,0.00,,---,0.00,VWS V14.01,2013-07-02 23:29:00,
2013-07-02 18:34:00,87.3,41.3,30.00,NNE,16,0.0,0.0,20,0.00,,---,0.00,VWS V14.01,2013-07-02 23:34:00,
2013-07-02 18:39:00,87.1,41.2,30.00,NNE,16,0.0,0.0,20,0.00,,---,0.00,VWS V14.01,2013-07-02 23:39:00,
2013-07-02 18:44:00,86.9,41.0,30.00,NNE,16,0.0,0.0,20,0.00,,---,0.00,VWS V14.01,2013-07-02 23:44:00,
2013-07-02 18:49:00,86.7,42.2,30.00,NNE,16,0.0,0.0,21,0.00,,---,0.00,VWS V14.01,2013-07-02 23:49:00,
2013-07-02 18:54:00,86.4,43.1,30.00,NNE,16,0.0,0.0,22,0.00,,---,0.00,VWS V14.01,2013-07-02 23:54:00,
2013-07-02 18:59:00,86.2,44.1,30.00,NNE,16,0.0,0.0,23,0.00,,---,0.00,VWS V14.01,2013-07-02 23:59:00,
2013-07-02 19:01:00,86.0,43.9,30.00,NNE,16,0.0,0.0,23,0.00,,---,0.00,VWS V14.01,2013-07-03 00:01:00,
2013-07-02 19:06:00,85.6,44.7,30.00,SE,139,0.0,0.0,24,0.00,,---,0.00,VWS V14.01,2013-07-03 00:06:00,
2013-07-02 19:11:00,85.1,45.4,30.00,SE,139,0.0,0.0,25,0.00,,---,0.00,VWS V14.01,2013-07-03 00:11:00,
2013-07-02 19:16:00,84.7,45.1,30.00,SE,141,0.0,0.0,25,0.00,,---,0.00,VWS V14.01,2013-07-03 00:16:00,
2013-07-02 19:21:00,84.4,45.8,30.00,SE,141,0.0,0.0,26,0.00,,---,0.00,VWS V14.01,2013-07-03 00:21:00,
2013-07-02 19:23:00,84.0,46.5,30.00,SE,141,0.0,0.0,27,0.00,,---,0.00,VWS V14.01,2013-07-03 00:23:00,
2013-07-02 19:24:00,84.0,47.4,30.00,SE,141,0.0,0.0,28,0.00,,---,0.00,VWS V14.01,2013-07-03 00:24:00,
2013-07-02 19:28:00,83.7,47.1,30.00,SE,141,0.0,0.0,28,0.00,,---,0.00,VWS V14.01,2013-07-03 00:28:00,
2013-07-02 19:33:00,82.9,47.5,30.03,SE,141,0.0,0.0,29,0.00,,---,0.00,VWS V14.01,2013-07-03 00:33:00,
2013-07-02 19:38:00,82.4,47.0,30.03,SE,141,0.0,0.0,29,0.00,,---,0.00,VWS V14.01,2013-07-03 00:38:00,
2013-07-02 19:43:00,81.9,47.4,30.03,SE,141,0.0,0.0,30,0.00,,---,0.00,VWS V14.01,2013-07-03 00:43:00,
2013-07-02 19:48:00,81.5,47.1,30.03,SE,141,0.0,0.0,30,0.00,,---,0.00,VWS V14.01,2013-07-03 00:48:00,
2013-07-02 19:53:00,81.1,46.8,30.03,SE,141,0.0,0.0,30,0.00,,---,0.00,VWS V14.01,2013-07-03 00:53:00,
2013-07-02 19:58:00,80.4,47.9,30.03,SE,141,0.0,0.0,32,0.00,,---,0.00,VWS V14.01,2013-07-03 00:58:00,
2013-07-02 20:00:00,80.2,47.7,30.03,SE,141,0.0,0.0,32,0.00,,---,0.00,VWS V14.01,2013-07-03 01:00:00,
2013-07-02 20:03:00,79.9,47.4,30.03,SE,141,0.0,0.0,32,0.00,,---,0.00,VWS V14.01,2013-07-03 01:03:00,
2013-07-02 20:08:00,79.5,47.9,30.03,SE,141,0.0,0.0,33,0.00,,---,0.00,VWS V14.01,2013-07-03 01:08:00,
2013-07-02 20:09:00,79.5,47.9,30.03,SE,141,0.0,0.0,33,0.00,,---,0.00,VWS V14.01,2013-07-03 01:09:00,
2013-07-02 20:14:00,79.3,47.8,30.03,SE,141,0.0,0.0,33,0.00,,---,0.00,VWS V14.01,2013-07-03 01:14:00,
2013-07-02 20:19:00,79.0,48.2,30.03,SE,141,0.0,0.0,34,0.00,,---,0.00,VWS V14.01,2013-07-03 01:19:00,
2013-07-02 20:24:00,78.6,48.7,30.03,SE,141,0.0,0.0,35,0.00,,---,0.00,VWS V14.01,2013-07-03 01:24:00,
2013-07-02 20:26:00,78.4,49.3,30.03,SE,141,0.0,0.0,36,0.00,,---,0.00,VWS V14.01,2013-07-03 01:26:00,
2013-07-02 20:31:00,78.3,49.1,30.03,SE,141,0.0,0.0,36,0.00,,---,0.00,VWS V14.01,2013-07-03 01:31:00,
2013-07-02 20:36:00,77.9,49.6,30.03,SE,141,0.0,0.0,37,0.00,,---,0.00,VWS V14.01,2013-07-03 01:36:00,
2013-07-02 20:41:00,77.7,49.4,30.03,SE,141,0.0,0.0,37,0.00,,---,0.00,VWS V14.01,2013-07-03 01:41:00,
2013-07-02 20:46:00,77.5,50.0,30.03,SE,141,0.0,0.0,38,0.00,,---,0.00,VWS V14.01,2013-07-03 01:46:00,
2013-07-02 20:49:00,77.4,49.8,30.03,SE,141,0.0,0.0,38,0.00,,---,0.00,VWS V14.01,2013-07-03 01:49:00,
2013-07-02 20:50:00,77.4,49.8,30.03,SE,141,0.0,0.0,38,0.00,,---,0.00,VWS V14.01,2013-07-03 01:50:00,
2013-07-02 20:55:00,77.4,51.2,30.03,SE,141,0.0,0.0,40,0.00,,---,0.00,VWS V14.01,2013-07-03 01:55:00,
2013-07-02 21:00:00,77.4,51.2,30.03,SE,141,0.0,0.0,40,0.00,,---,0.00,VWS V14.01,2013-07-03 02:00:00,
2013-07-02 21:05:00,77.5,51.3,30.03,WSW,257,0.0,0.0,40,0.00,,---,0.00,VWS V14.01,2013-07-03 02:05:00,
2013-07-02 21:10:00,77.2,51.0,30.03,WSW,257,0.0,0.0,40,0.00,,---,0.00,VWS V14.01,2013-07-03 02:10:00,
2013-07-02 21:15:00,77.2,51.0,30.03,WSW,257,0.0,0.0,40,0.00,,---,0.00,VWS V14.01,2013-07-03 02:15:00,
2013-07-02 21:20:00,76.8,51.4,30.06,WSW,257,0.0,0.0,41,0.00,,---,0.00,VWS V14.01,2013-07-03 02:20:00,
2013-07-02 21:25:00,76.8,51.4,30.06,WSW,257,0.0,0.0,41,0.00,,---,0.00,VWS V14.01,2013-07-03 02:25:00,
2013-07-02 21:30:00,76.5,51.0,30.06,WSW,257,0.0,0.0,41,0.00,,---,0.00,VWS V14.01,2013-07-03 02:30:00,
2013-07-02 21:32:00,76.5,51.0,30.06,WSW,257,0.0,0.0,41,0.00,,---,0.00,VWS V14.01,2013-07-03 02:32:00,
2013-07-02 21:37:00,76.3,50.9,30.06,WSW,257,0.0,0.0,41,0.00,,---,0.00,VWS V14.01,2013-07-03 02:37:00,
2013-07-02 21:42:00,75.9,51.2,30.06,WSW,257,0.0,0.0,42,0.00,,---,0.00,VWS V14.01,2013-07-03 02:42:00,
2013-07-02 21:46:00,75.7,51.0,30.06,WSW,257,0.0,0.0,42,0.00,,---,0.00,VWS V14.01,2013-07-03 02:46:00,
2013-07-02 21:51:00,75.4,51.3,30.06,WSW,257,0.0,0.0,43,0.00,,---,0.00,VWS V14.01,2013-07-03 02:51:00,
2013-07-02 21:56:00,75.2,51.2,30.06,WSW,257,0.0,0.0,43,0.00,,---,0.00,VWS V14.01,2013-07-03 02:56:00,
2013-07-02 22:01:00,74.8,52.1,30.06,WSW,257,0.0,0.0,45,0.00,,---,0.00,VWS V14.01,2013-07-03 03:01:00,
2013-07-02 22:02:00,74.8,52.1,30.06,WSW,257,0.0,0.0,45,0.00,,---,0.00,VWS V14.01,2013-07-03 03:02:00,
2013-07-02 22:07:00,74.5,51.8,30.06,WSW,257,0.0,0.0,45,0.00,,---,0.00,VWS V14.01,2013-07-03 03:07:00,
2013-07-02 22:12:00,74.3,52.2,30.06,WSW,257,0.0,0.0,46,0.00,,---,0.00,VWS V14.01,2013-07-03 03:12:00,
2013-07-02 22:17:00,74.3,52.2,30.06,WSW,257,0.0,0.0,46,0.00,,---,0.00,VWS V14.01,2013-07-03 03:17:00,
2013-07-02 22:20:00,74.3,52.2,30.06,WSW,257,0.0,0.0,46,0.00,,---,0.00,VWS V14.01,2013-07-03 03:20:00,
2013-07-02 22:25:00,73.9,52.5,30.06,WSW,257,0.0,0.0,47,0.00,,---,0.00,VWS V14.01,2013-07-03 03:25:00,
2013-07-02 22:30:00,73.9,52.5,30.06,WSW,257,0.0,0.0,47,0.00,,---,0.00,VWS V14.01,2013-07-03 03:30:00,
2013-07-02 22:35:00,73.9,53.0,30.06,WSW,257,0.0,0.0,48,0.00,,---,0.00,VWS V14.01,2013-07-03 03:35:00,
2013-07-02 22:39:00,73.9,53.0,30.06,WSW,257,0.0,0.0,48,0.00,,---,0.00,VWS V14.01,2013-07-03 03:39:00,
2013-07-02 22:44:00,73.9,53.0,30.06,WSW,257,0.0,0.0,48,0.00,,---,0.00,VWS V14.01,2013-07-03 03:44:00,
2013-07-02 22:49:00,73.8,53.4,30.06,WSW,257,0.0,0.0,49,0.00,,---,0.00,VWS V14.01,2013-07-03 03:49:00,
2013-07-02 22:54:00,73.6,52.7,30.06,WSW,257,0.0,0.0,48,0.00,,---,0.00,VWS V14.01,2013-07-03 03:54:00,
2013-07-02 22:59:00,73.6,52.7,30.06,WSW,257,0.0,0.0,48,0.00,,---,0.00,VWS V14.01,2013-07-03 03:59:00,
2013-07-02 23:00:00,73.4,52.5,30.06,WSW,257,0.0,0.0,48,0.00,,---,0.00,VWS V14.01,2013-07-03 04:00:00,
2013-07-02 23:01:00,73.4,52.5,30.06,WSW,257,0.0,0.0,48,0.00,,---,0.00,VWS V14.01,2013-07-03 04:01:00,
2013-07-02 23:03:00,73.4,52.5,30.06,WSW,257,0.0,0.0,48,0.00,,---,0.00,VWS V14.01,2013-07-03 04:03:00,
2013-07-02 23:04:00,73.4,52.5,30.06,WSW,257,0.0,0.0,48,0.00,,---,0.00,VWS V14.01,2013-07-03 04:04:00,
2013-07-02 23:09:00,73.2,52.4,30.06,WSW,257,0.0,0.0,48,0.00,,---,0.00,VWS V14.01,2013-07-03 04:09:00,
2013-07-02 23:14:00,73.0,52.2,30.06,WSW,257,0.0,0.0,48,0.00,,---,0.00,VWS V14.01,2013-07-03 04:14:00,
2013-07-02 23:19:00,73.0,52.2,30.06,WSW,257,0.0,0.0,48,0.00,,---,0.00,VWS V14.01,2013-07-03 04:19:00,
2013-07-02 23:24:00,72.9,52.0,30.06,WSW,257,0.0,0.0,48,0.00,,---,0.00,VWS V14.01,2013-07-03 04:24:00,
2013-07-02 23:29:00,72.9,52.0,30.06,WSW,257,0.0,0.0,48,0.00,,---,0.00,VWS V14.01,2013-07-03 04:29:00,
2013-07-02 23:31:00,72.9,52.0,30.06,WSW,257,0.0,0.0,48,0.00,,---,0.00,VWS V14.01,2013-07-03 04:31:00,
2013-07-02 23:32:00,72.9,52.0,30.06,WSW,257,0.0,0.0,48,0.00,,---,0.00,VWS V14.01,2013-07-03 04:32:00,
2013-07-02 23:37:00,73.0,52.2,30.06,WSW,257,0.0,0.0,48,0.00,,---,0.00,VWS V14.01,2013-07-03 04:37:00,
2013-07-02 23:42:00,73.0,52.2,30.06,WSW,257,0.0,0.0,48,0.00,,---,0.00,VWS V14.01,2013-07-03 04:42:00,
2013-07-02 23:45:00,73.2,52.4,30.06,WSW,257,0.0,0.0,48,0.00,,---,0.00,VWS V14.01,2013-07-03 04:45:00,
2013-07-02 23:46:00,73.2,52.4,30.06,WSW,257,0.0,0.0,48,0.00,,---,0.00,VWS V14.01,2013-07-03 04:46:00,
2013-07-02 23:51:00,73.2,52.4,30.06,WSW,257,0.0,0.0,48,0.00,,---,0.00,VWS V14.01,2013-07-03 04:51:00,
2013-07-02 23:53:00,73.2,52.4,30.06,WSW,257,0.0,0.0,48,0.00,,---,0.00,VWS V14.01,2013-07-03 04:53:00,
2013-07-02 23:58:00,73.2,52.4,30.06,WSW,257,0.0,0.0,48,0.00,,---,0.00,VWS V14.01,2013-07-03 04:58:00,